[[{"header":{"parameterUnit":"m.s-1","parameterCategory":1,"la1":30.2992,"la2":30.254,"lo1":-89.0895,"lo2":-89.0443,"dy":0.0025,"dx":0.0025,"nx":19,"ny":19,"refTime":"2026-04-13T09:00:00:Z","depth":0,"parameterNumber":2,"parameterNumberName":"U-component_of_WINDS"},"data":[0,0,0,-1.6355,-1.6357,-1.6437,-1.6437,-1.654,-1.6541,0,0,0,0,0,0,0,0,0,0,0,-1.633,-1.6331,-1.6355,-1.6357,-1.6437,-1.6437,-1.654,-1.6541,0,0,0,0,0,0,0,0,0,0,0,-1.633,-1.6331,-1.6331,-1.6357,-1.6437,-1.6437,-1.654,-1.648,0,0,0,0,0,0,0,0,0,0,-1.6402,-1.6377,-1.633,-1.6331,-1.6357,-1.6437,-1.6437,-1.6477,-1.6483,-1.6504,0,-1.6521,0,-1.6533,-1.6548,-1.6549,0,0,0,-1.6358,-1.6372,-1.6394,-1.6331,-1.6358,-1.6437,-1.6401,-1.648,-1.6488,-1.6513,-1.6522,-1.6526,-1.6534,-1.6549,-1.6549,-1.6662,-1.6662,0,0,-1.6353,-1.6344,-1.6389,-1.6399,-1.6385,-1.6398,-1.6404,-1.6485,-1.6495,-1.6523,-1.6528,-1.6536,-1.655,-1.655,-1.6661,-1.6662,0,0,0,-1.634,-1.6341,-1.6362,-1.6395,-1.6409,-1.6401,-1.6407,-1.6492,-1.6499,-1.653,-1.6537,-1.655,-1.6551,-1.6661,-1.6661,-1.6676,0,0,0,-1.6337,-1.6333,-1.636,-1.6355,-1.6408,-1.6451,-1.6411,-1.6493,-1.6503,-1.6537,-1.655,-1.6552,-1.666,-1.6661,-1.6674,-1.6684,0,0,0,-1.6325,-1.6332,-1.6343,-1.6354,-1.6388,-1.645,-1.6462,-1.6496,-1.6508,-1.6549,-1.6553,-1.666,-1.6661,-1.6673,-1.6682,-1.6711,0,0,0,-1.631,-1.6355,-1.6343,-1.6397,-1.6388,-1.6458,-1.6462,-1.6515,-1.6552,-1.6551,-1.666,-1.6661,-1.6672,-1.6681,-1.671,-1.6734,-1.6743,0,0,-1.6362,-1.6361,-1.6393,-1.6385,-1.6455,-1.6447,-1.6519,-1.6562,-1.6575,-1.6632,-1.6635,-1.6675,-1.6682,-1.6711,-1.6798,-1.6805,0,0,0,-1.6407,-1.643,-1.645,-1.6485,-1.6518,-1.6548,-1.658,-1.6596,-1.6645,-1.6602,-1.6693,-1.6698,-1.6715,-1.6728,-1.6734,-1.6749,-1.6666,-1.6666,-1.6666,-1.6467,-1.6481,-1.6535,-1.6558,-1.6591,-1.6625,-1.6653,-1.6681,-1.6685,-1.6706,-1.6723,-1.6774,-1.6788,-1.6793,-1.6809,-1.6737,-1.6737,-1.6737,-1.6737,-1.6545,-1.658,-1.6584,-1.6638,-1.6652,-1.6698,-1.6732,-1.6734,-1.6779,-1.6762,-1.6779,-1.6759,-1.68,-1.6815,-1.6739,-1.6738,-1.6738,-1.6738,-1.6738,-1.6586,-1.6605,-1.6623,-1.6675,-1.6713,-1.6735,-1.6779,-1.679,-1.6802,-1.6817,-1.6837,-1.6837,-1.6838,-1.6826,-1.6826,-1.6826,-1.6826,-1.6827,-1.6827,-1.6622,-1.6642,-1.6677,-1.6716,-1.674,-1.6772,-1.6807,-1.6831,-1.6861,-1.6866,-1.6866,-1.6868,-1.6802,-1.6785,-1.6829,-1.6829,-1.6829,-1.6828,-1.6828,-1.6696,-1.6681,-1.6734,-1.6758,-1.6806,-1.6843,-1.6857,-1.6905,-1.6927,-1.6948,-1.6947,-1.6896,-1.6896,-1.6892,-1.6878,-1.6944,-1.6944,-1.6944,-1.6944,-1.6731,-1.6732,-1.6789,-1.6827,-1.6865,-1.6883,-1.6944,-1.6971,-1.6997,-1.7012,-1.7004,-1.6987,-1.6981,-1.6985,-1.6978,-1.6965,-1.7052,-1.7052,-1.7052,-1.6778,-1.6783,-1.6832,-1.6856,-1.6894,-1.6927,-1.6985,-1.7029,-1.7055,-1.7057,-1.7024,-1.7019,-1.6991,-1.6981,-1.6982,-1.6971,-1.6948,0,0]},{"header":{"parameterUnit":"m.s-1","parameterCategory":1,"la1":30.2992,"la2":30.254,"lo1":-89.0895,"lo2":-89.0443,"dy":0.0025,"dx":0.0025,"nx":19,"ny":19,"refTime":"2026-04-13T09:00:00:Z","depth":0,"parameterNumber":3,"parameterNumberName":"V-component_of_WINDS"},"data":[0,0,0,5.3062,5.3065,5.3152,5.3152,5.3278,5.328,0,0,0,0,0,0,0,0,0,0,0,5.3048,5.3049,5.3062,5.3065,5.3152,5.3152,5.3278,5.328,0,0,0,0,0,0,0,0,0,0,0,5.3047,5.3049,5.305,5.3065,5.3152,5.3152,5.3278,5.3206,0,0,0,0,0,0,0,0,0,0,5.3119,5.3117,5.3049,5.3051,5.3066,5.3152,5.3152,5.3203,5.3211,5.3246,0,5.3282,0,5.3283,5.3289,5.329,0,0,0,5.3056,5.3111,5.3124,5.3051,5.3067,5.3151,5.311,5.3207,5.3216,5.3257,5.3284,5.3288,5.3285,5.329,5.3291,5.3528,5.3529,0,0,5.3051,5.3069,5.3118,5.3131,5.312,5.3107,5.3113,5.3212,5.3242,5.3284,5.3291,5.3288,5.3291,5.3292,5.3526,5.3528,0,0,0,5.3043,5.3066,5.3077,5.3126,5.314,5.311,5.3116,5.3238,5.324,5.3292,5.3289,5.3292,5.3294,5.3525,5.3527,5.3619,0,0,0,5.304,5.3062,5.3075,5.3087,5.3139,5.3191,5.314,5.3233,5.3243,5.3288,5.3292,5.3295,5.3523,5.3526,5.3613,5.3659,0,0,0,5.3038,5.3061,5.3078,5.3088,5.3126,5.3189,5.3196,5.3235,5.3242,5.329,5.3296,5.3522,5.3526,5.3608,5.365,5.3726,0,0,0,5.3041,5.3159,5.308,5.321,5.3126,5.3246,5.3195,5.3284,5.3336,5.3293,5.3523,5.3527,5.3606,5.3645,5.372,5.3791,5.3823,0,0,5.32,5.3179,5.3254,5.3185,5.3325,5.3231,5.3383,5.3413,5.3401,5.3486,5.3491,5.3615,5.365,5.3724,5.3999,5.4025,0,0,0,5.331,5.3364,5.3397,5.3448,5.3475,5.35,5.3506,5.3516,5.3588,5.3449,5.3663,5.3683,5.3726,5.3759,5.3781,5.3816,5.3544,5.3543,5.3543,5.3559,5.3538,5.3659,5.3648,5.3698,5.3702,5.374,5.3754,5.3718,5.3769,5.3793,5.3963,5.4003,5.4019,5.4055,5.3831,5.3831,5.3831,5.3832,5.3788,5.3859,5.3808,5.3908,5.3883,5.3966,5.3974,5.3945,5.4017,5.3943,5.398,5.3899,5.4048,5.4078,5.3838,5.3837,5.3836,5.3836,5.3835,5.3947,5.3977,5.399,5.406,5.4117,5.4101,5.4172,5.4148,5.4125,5.4161,5.4183,5.4181,5.4175,5.4174,5.4175,5.4175,5.4176,5.4176,5.4176,5.4106,5.4117,5.4181,5.4219,5.4248,5.4282,5.4287,5.4314,5.4337,5.4313,5.4313,5.427,5.4067,5.4015,5.4185,5.4184,5.4183,5.4182,5.4181,5.4343,5.4285,5.4384,5.4413,5.4454,5.4511,5.4479,5.4536,5.4555,5.459,5.454,5.4395,5.437,5.4353,5.431,5.4546,5.4546,5.4546,5.4546,5.4476,5.4462,5.4556,5.4604,5.4648,5.4629,5.4738,5.4743,5.4738,5.4748,5.471,5.4652,5.4635,5.4621,5.4597,5.4557,5.485,5.485,5.4851,5.4619,5.4608,5.4707,5.4703,5.4733,5.4758,5.486,5.4915,5.4898,5.4862,5.4754,5.4741,5.4646,5.4617,5.4577,5.4542,5.4466,0,0]}]]